TimeCDT,TemperatureF,Dew PointF,Humidity,Sea Level PressureIn,VisibilityMPH,Wind Direction,Wind SpeedMPH,Gust SpeedMPH,PrecipitationIn,Events,Conditions,WindDirDegrees,DateUTC
12:53 AM,59.0,44.1,58,30.07,10.0,North,9.2,-,N/A,,Overcast,360,2013-10-06 05:53:00
1:53 AM,60.1,45.0,57,30.08,10.0,North,8.1,-,N/A,,Overcast,360,2013-10-06 06:53:00
2:53 AM,57.9,46.9,67,30.10,9.0,NNW,8.1,-,0.00,Rain-Thunderstorm,Light Rain,340,2013-10-06 07:53:00
3:12 AM,55.9,48.9,77,30.12,9.0,North,5.8,-,0.00,Rain,Light Rain,350,2013-10-06 08:12:00
3:53 AM,55.9,51.1,84,30.10,10.0,West,3.5,-,0.00,,Mostly Cloudy,280,2013-10-06 08:53:00
4:53 AM,55.0,50.0,83,30.09,10.0,NW,4.6,-,N/A,,Mostly Cloudy,310,2013-10-06 09:53:00
5:53 AM,53.1,48.0,83,30.10,10.0,NW,5.8,-,N/A,,Clear,320,2013-10-06 10:53:00
6:53 AM,52.0,46.9,83,30.12,10.0,NNW,6.9,-,N/A,,Clear,330,2013-10-06 11:53:00
7:53 AM,51.1,46.0,83,30.14,10.0,Calm,Calm,-,N/A,,Clear,0,2013-10-06 12:53:00
8:53 AM,54.0,46.9,77,30.16,10.0,WNW,5.8,-,N/A,,Clear,300,2013-10-06 13:53:00
9:53 AM,59.0,48.0,67,30.17,10.0,WNW,9.2,-,N/A,,Clear,290,2013-10-06 14:53:00
10:53 AM,70.0,42.1,36,30.15,10.0,North,10.4,-,N/A,,Clear,350,2013-10-06 15:53:00
11:53 AM,73.9,36.0,25,30.15,10.0,North,15.0,23.0,N/A,,Clear,10,2013-10-06 16:53:00
12:53 PM,75.9,36.0,23,30.13,10.0,NNE,13.8,19.6,N/A,,Clear,30,2013-10-06 17:53:00
1:53 PM,78.1,33.1,19,30.12,10.0,North,10.4,18.4,N/A,,Clear,350,2013-10-06 18:53:00
2:53 PM,79.0,30.0,17,30.09,10.0,North,12.7,25.3,N/A,,Clear,360,2013-10-06 19:53:00
3:53 PM,80.1,30.9,17,30.07,10.0,North,9.2,19.6,N/A,,Clear,350,2013-10-06 20:53:00
4:53 PM,79.0,30.0,17,30.07,10.0,NNW,15.0,-,N/A,,Clear,330,2013-10-06 21:53:00
5:53 PM,78.1,30.0,17,30.07,10.0,Variable,6.9,-,N/A,,Clear,0,2013-10-06 22:53:00
6:53 PM,73.9,33.1,22,30.09,10.0,North,4.6,-,N/A,,Clear,360,2013-10-06 23:53:00
7:53 PM,66.9,37.0,33,30.11,10.0,North,4.6,-,N/A,,Clear,360,2013-10-07 00:53:00
8:53 PM,62.1,37.9,41,30.13,10.0,North,4.6,-,N/A,,Clear,10,2013-10-07 01:53:00
9:53 PM,60.1,37.0,42,30.14,10.0,North,5.8,-,N/A,,Clear,350,2013-10-07 02:53:00
10:53 PM,55.9,43.0,62,30.13,10.0,Calm,Calm,-,N/A,,Clear,0,2013-10-07 03:53:00
11:53 PM,55.0,41.0,59,30.12,10.0,Calm,Calm,-,N/A,,Clear,0,2013-10-07 04:53:00